352  
ASUS41 KOKX 150409  
RWROKX  
 
REGIONAL WEATHER ROUNDUP  
NATIONAL WEATHER SERVICE NEW YORK NY  
1100 PM EST THU DEC 14 2017  
 
NOTE: "FAIR" INDICATES FEW OR NO CLOUDS BELOW 12,000 FEET WITH NO  
SIGNIFICANT WEATHER AND/OR S TO VISIBILITY
.  
 
NYZ071-072-176-178-NJZ106-104-150500-  
NEW YORK CITY METRO AREA  
 
CITY SKY/WX TMP DP RH WIND PRES REMARKS
 
CENTRAL PARK MOCLDY 24 5 44 NW8 30.10S WCI 15  
BRONX BOT GARD N/A 23 5 46 N3 30.10R  
BRONX LEHMAN C NOT AVBL  
LAGUARDIA APRT CLOUDY 25 8 48 NW9 30.09S WCI 15  
QUEENS COLLEGE NOT AVBL  
KENNEDY INTL MOCLDY 24 6 46 NW13 30.10S WCI 12  
BREEZY POINT N/A N/A N/A N/A NW13G20 N/A  
BROOKLYN COLL NOT AVBL  
STATEN ISLAND NOT AVBL  
NEWARK/LIBERTY MOCLDY 24 4 42 NW12 30.10S WCI 13  
TETERBORO CLOUDY 23 6 48 N3 30.09S  

 
 
NYZ177-179-078>081-150500-  
LONG ISLAND NEW YORK  
 
CITY SKY/WX TMP DP RH WIND PRES REMARKS
 
JONES BEACH N/A N/A N/A N/A NW15 N/A  
WANTAGH NOT AVBL  
MATINECOCK PT N/A N/A N/A N/A NW23G29 N/A  
FARMINGDALE PTCLDY 23 4 44 NW9 30.08S WCI 13  
MACARTHUR/ISP PTCLDY 23 6 48 NW12G23 30.06S WCI 12  
SHIRLEY CLEAR 22 7 52 NW16 30.07S WCI 8  
MT SINAI HARB N/A N/A N/A N/A NW14G21 N/A  
WESTHAMPTON CLEAR 18 6 59 W6 30.07R WCI 10  
EAST HAMPTON FAIR 23 10 57 NW6 30.06R WCI 16  
SOUTHOLD NOT AVBL  
MONTAUK N/A 26 10 50 NW12G22 30.07R WCI 16  

 
 
NYZ052-065-067-150500-  
HUDSON VALLEY  
 
CITY SKY/WX TMP DP RH WIND PRES REMARKS
 
WHITE PLAINS PTCLDY 20 4 50 W14G21 30.05S WCI 7  
LARCHMONT HARB N/A N/A N/A N/A W13G18 N/A  
CROTON ON HUDS N/A N/A N/A N/A NW8G16 N/A  
SOMERS NOT AVBL  
BREWSTER NOT AVBL  
NEWBURGH CLEAR 16 7 67 CALM 30.08R  
MONTGOMERY CLOUDY 15 3 59 W5 30.06R WCI 8  
OTISVILLE NOT AVBL  
WARWICK NOT AVBL  
SUFFERN NOT AVBL  
POUGHKEEPSIE CLEAR 11 2 67 CALM 30.08R  
ALBANY MOCLDY 15 4 61 SW3 30.06R  

 
 
NJZ001-105-106-008-010-013-015-019>022-104-150500-  
NEW JERSEY  
 
CITY SKY/WX TMP DP RH WIND PRES REMARKS
 
NEWARK/LIBERTY MOCLDY 24 4 42 NW12 30.10S WCI 13  
TETERBORO CLOUDY 23 6 48 N3 30.09S  
CALDWELL PTCLDY 19 5 54 W5 30.10S WCI 12  
SOMERVILLE CLOUDY 16 10 77 CALM 30.09R  
LINDEN FAIR 23 5 45 CALM 30.11R  
PERTH AMBOY N/A N/A N/A N/A NW7 N/A  
SUSSEX PTCLDY 10 4 76 CALM 30.07R  
ANDOVER NOT AVBL  
TRENTON PTCLDY 21 7 54 N6 30.10R WCI 13  
MILLVILLE PTCLDY 21 17 84 CALM 30.10F  
ATLANTIC CITY CLEAR 22 16 78 CALM 30.11R  
WRIGHTSTOWN MOCLDY 22 11 62 NW8 30.07R WCI 12  
TOMS RIVER CLOUDY 17 14 88 CALM 30.11R  
BELMAR CLOUDY 21 10 62 NW6 30.10R WCI 13  

 
 
PAZ047>061-062-071-150500-  
EASTERN PENNSYLVANIA  
 
CITY SKY/WX TMP DP RH WIND PRES REMARKS
 
PHILADELPHIA CLOUDY 27 10 49 NW8 30.13R WCI 19  
ALLENTOWN CLOUDY 22 5 48 W7 30.08F WCI 13  
SCRANTON CLEAR 12 3 67 S3 30.05R  

 
 
CTZ002-004>006-009-010-012-RIZ004-006-007-MAZ004-011-015-150500-  
SOUTHERN NEW ENGLAND  
IN CT  
 
CITY SKY/WX TMP DP RH WIND PRES REMARKS
 
BRADLEY INTL PTCLDY 16 4 59 NW6 30.04R WCI 7  
HARTFORD CLEAR 18 4 54 S3 30.07R  
DANBURY CLOUDY 18 2 49 NW6 30.06R WCI 10  
WTRBURY/OXFORD CLEAR 12 3 67 W6 30.03R WCI 3  
NORWALK HARBOR N/A N/A N/A N/A W8 N/A  
BRIDGEPORT PTCLDY 21 3 45 NW13 30.08R WCI 9  
MERIDEN CLEAR 13 4 67 CALM 30.07R  
NEW HAVEN PTCLDY 21 5 50 NW7 30.08R WCI 12  
CHESTER FAIR 16 3 57 NW5 30.03R WCI 9  
GROTON PTCLDY 19 4 51 NW8 30.07R WCI 9  
WILIMANTIC CLEAR 17 4 56 SW6 30.05R WCI 9  
 
IN RI  
 
CITY SKY/WX TMP DP RH WIND PRES REMARKS
 
PROVIDENCE CLEAR 18 5 57 W9 30.03R WCI 7  
BLOCK ISLAND CLEAR 22 10 60 NW14G21 30.06R WCI 9  
WESTERLY PTCLDY 19 4 51 W6 30.06R WCI 11  
IN MA  
 
CITY SKY/WX TMP DP RH WIND PRES REMARKS
 
BOSTON CLEAR 20 5 52 W15G22 29.99R WCI 6  
WORCESTER CLEAR 12 1 61 W13 29.91R WCI -3  
WESTFIELD CLEAR 16 5 62 NW12G17 30.01R WCI 3  
PROVINCETOWN CLEAR 23 10 57 W20G26 29.98R WCI 8  
NANTUCKET CLEAR 23 11 60 W14 29.99R WCI 11  

 
 
ANZ330-335-338-340-345-350-353-355-150500-  
COASTAL MARINE OBSERVATIONS  
 
 
STATION/POSITION TIME SKY/WX TEMP WIND PRES VSBY WAVE
 
AIR SEA DIR/SP/G HT/PER  
(UTC) (F) (DEG/KT/KT) (MB) (MI) (FT/S)  
NY HARB ENTRANCE 0250 31 51 320/ 19/ 25 1017.7 3/ 4  
20 S FIRE ISLAND 0350 30 52 320/ 17/ 25 1018.3 5/ 5  
GREAT SOUTH BAY 0330 25 45 310/ 14/ 17 N/A  
HUDSON CANYON 0250 36 56 320/ 19/ 23 1016.9 7/ 7  
KINGS POINT 0324 25 42 360/ 12/ 14 1020.0  
EXECUTION ROCKS 0330 26 310/ 12/ 16 N/A  
WESTERN LI SOUND NOT AVBL  
CENTRAL LI SOUND 0253 27 300/ 14/ 21 N/A 3  
ROBBINS REEF 0348 25 300/ 13/ 17 1019.6  

 
 
>>>>>>>>>>>>>>>>>>>>>>>>>>>> KEY <<<<<<<<<<<<<<<<<<<<<<<<<<<  
> <  
> SKY/WX - SKY CONDITION/PRESENT WEATHER <  
> TMP - TEMPERATURE IN FAHRENHEIT <  
> DP - DEW POINT IN FAHRENHEIT <  
> RH - RELATIVE HUMIDITY IN PERCENT <  
> WIND - DIRECTION (FROM) AND SPEED IN MPH <  
> PRES - MEAN SEA LEVEL PRESSURE (INCHES OF HG) <  
> WCI - WIND CHILL INDEX <  
> VSB - VISIBILITY IN MILES <  
> HX - HEAT INDEX <  
> TC - TEMPERATURE IN CELSIUS <  
> VRB - VARIABLE WIND DIRECTION <  
> <  
>>>>>>>>>>>>>>>>>>>>>>>>>>>> KEY <<<<<<<<<<<<<<<<<<<<<<<<<<<  
 
 
CLICK HERE TO GO TO PREVIOUS BULLETINS.

The Nexlab NY Page
The Nexlab NJ Page
The Nexlab CT Page Main Text Page